Location: Kellogg
(38.0159°N, 90.0546°W)
Time: 14:48:16
(UTC+00:00)

ARIANE 6 FM1 Upper Stage - Pass Details

Date: 29 January 2026
Orbit: 522 x 609 km, 62.0° (Epoch: 8 February)

Event Time Altitude Azimuth Distance (km) Brightness Sun altitude
Rises 23:54:50 0° 253° (WSW) 2,713 8.9 -7.5°
Reaches altitude 10° 23:57:39 10° 273° (W) 1,806 6.6 -8.0°
Maximum altitude 00:00:26 18° 317° (NW) 1,373 5.0 -8.5°
Drops below altitude 10° 00:03:12 10° 0° (N) 1,784 5.1 -9.0°
Sets 00:05:58 0° 21° (NNE) 2,667 5.8 -9.6°
Enters shadow 00:06:02 - 21° (NNE) 2,690 5.8 -9.6°
